Location: Bidwell Hollow
(37.7387°N, 90.1707°W)
Time: 02:43:57
(UTC+00:00)

Transit 2A Rocket - Visible Passes

Search period start: 14 May 2026 00:00
Search period end: 24 May 2026 00:00
Orbit: 587 x 895 km, 66.7° (Epoch: 13 May)

Date Brightness Start Highest point End Pass type
(mag) Time Alt. Az. Time Alt. Az. Time Alt. Az.
14 May 6.6 01:37:50 10° SW 01:43:18 43° WNW 01:48:24 10° NNE visible
14 May 8.2 08:42:38 10° NNE 08:43:59 11° NE 08:45:19 10° ENE visible
15 May 8.4 02:38:10 10° WNW 02:40:35 13° NW 02:42:57 10° NNW visible
15 May 5.7 09:36:55 10° NNW 09:41:15 46° ENE 09:45:23 10° SE visible
16 May 8.0 01:50:11 10° W 01:54:27 22° NW 01:58:30 10° N visible
16 May 7.0 08:51:41 10° N 08:55:20 24° NE 08:58:50 10° ESE visible
17 May 7.8 08:07:06 10° NNE 08:09:13 13° NE 08:11:18 10° ENE visible
17 May 4.4 09:47:40 10° NNW 09:52:05 67° WSW 09:56:18 10° SSE visible
18 May 8.6 02:04:32 10° WNW 02:05:51 11° NW 02:07:11 10° NNW visible
18 May 5.2 09:01:58 10° NNW 09:06:22 56° ENE 09:10:34 10° SE visible
19 May 6.6 08:16:37 10° N 08:20:30 28° NE 08:24:13 10° ESE visible
19 May 5.5 09:59:06 10° NW 10:02:39 24° WSW 10:06:05 10° SSW visible
20 May 7.5 07:31:46 10° N 07:34:26 15° NE 07:37:02 10° E visible
20 May 4.6 09:12:50 10° NW 09:17:08 53° WSW 09:21:16 10° S visible
21 May 4.7 08:27:03 10° NNW 08:31:28 70° ENE 08:34:44 17° SE visible
22 May 6.1 07:41:35 10° N 07:45:39 33° NE 07:48:01 19° ESE visible
22 May 5.8 09:24:31 10° WNW 09:27:34 20° WSW 09:27:34 20° WSW visible
23 May 7.1 06:56:34 10° N 06:59:39 18° NE 07:01:58 12° E visible
23 May 5.0 08:38:02 10° NW 08:41:33 39° W 08:41:33 39° W visible
